,,Stat5,,Stat1,,Stat2,,Stat3,,Stat4,,Wind1,,Wind1,
time,status,PA1M_AVG,status,PR1M_SUM,status,RH1M_AVG,status,SR1M_AVG,status,TA1M_AVG,status,W1dAve1m,status,W1sAve1m,
2002-03-31, 00:00:01,VALID,919.572,VALID,0,VALID,99.0834,VALID,-0.0169808,VALID,20.1035,VALID,319,VALID,0.608758,
2002-03-31, 00:01:00,VALID,919.572,VALID,0,VALID,99.0898,VALID,-0.0339617,VALID,20.1038,VALID,311,VALID,0.322574,
2002-03-31, 00:02:00,VALID,919.558,VALID,0,VALID,99.0911,VALID,-0.0509425,VALID,20.1068,VALID,339,VALID,0.46895,
2002-03-31, 00:03:00,VALID,919.537,VALID,0,VALID,99.0898,VALID,-0.0339617,VALID,20.1063,VALID,335,VALID,0.413281,
2002-03-31, 00:04:00,VALID,919.514,VALID,0,VALID,99.1076,VALID,-0.0339617,VALID,20.1194,VALID,261,VALID,0.711338,
2002-03-31, 00:05:00,VALID,919.497,VALID,0,VALID,99.1101,VALID,0,VALID,20.1259,VALID,341,VALID,0.730168,
2002-03-31, 00:06:00,VALID,919.465,VALID,0,VALID,99.1038,VALID,-0.0679233,VALID,20.1391,VALID,19,VALID,0.977407,
2002-03-31, 00:07:00,VALID,919.45,VALID,0,VALID,99.1267,VALID,-0.0339617,VALID,20.1709,VALID,20,VALID,0.838867,
2002-03-31, 00:08:00,VALID,919.431,VALID,0,VALID,99.1279,VALID,-0.0339617,VALID,20.2325,VALID,22,VALID,0.64545,
2002-03-31, 00:09:00,VALID,919.412,VALID,0,VALID,99.1381,VALID,-0.0169808,VALID,20.236,VALID,27,VALID,0.542773,
2002-03-31, 00:10:00,VALID,919.4,VALID,0,VALID,99.1406,VALID,-0.0509425,VALID,20.2686,VALID,28,VALID,0.0274439,
2002-03-31, 00:11:00,VALID,919.385,VALID,0,VALID,99.1305,VALID,-0.0339617,VALID,20.2783,VALID,28,VALID,0.0583882,
2002-03-31, 00:12:00,VALID,919.357,VALID,0.2,VALID,99.1356,VALID,-0.0849042,VALID,20.2748,VALID,33,VALID,0.322163,
2002-03-31, 00:13:00,VALID,919.33,VALID,0,VALID,99.1394,VALID,-0.0169808,VALID,20.3108,VALID,30,VALID,0.554297,
2002-03-31, 00:14:00,VALID,919.31,VALID,0,VALID,99.1356,VALID,-0.0509425,VALID,20.3362,VALID,18,VALID,0.457031,
2002-03-31, 00:15:00,VALID,919.282,VALID,0,VALID,99.1406,VALID,-0.0509425,VALID,20.372,VALID,20,VALID,0.452524,
2002-03-31, 00:16:00,VALID,919.25,VALID,0,VALID,99.1292,VALID,-0.0849042,VALID,20.3754,VALID,350,VALID,0.390419,
2002-03-31, 00:17:00,VALID,919.241,VALID,0,VALID,99.133,VALID,-0.0509425,VALID,20.32,VALID,251,VALID,0.0821314,
2002-03-31, 00:18:00,VALID,919.225,VALID,0,VALID,99.119,VALID,-0.0509425,VALID,20.2979,VALID,341,VALID,0.236178,
2002-03-31, 00:19:00,VALID,919.219,VALID,0,VALID,99.1203,VALID,-0.0339617,VALID,20.3033,VALID,7,VALID,0.18391,
2002-03-31, 00:20:00,VALID,919.208,VALID,0,VALID,99.119,VALID,-0.0509425,VALID,20.3165,VALID,8,VALID,0.353766,
2002-03-31, 00:21:00,VALID,919.197,VALID,0,VALID,99.1152,VALID,-0.0679233,VALID,20.3235,VALID,8,VALID,0.248481,
2002-03-31, 00:22:00,VALID,919.201,VALID,0,VALID,99.1203,VALID,-0.101885,VALID,20.3205,VALID,11,VALID,0.273003,
2002-03-31, 00:23:00,VALID,919.186,VALID,0,VALID,99.1254,VALID,-0.0849042,VALID,20.33,VALID,16,VALID,0.486328,
2002-03-31, 00:24:00,VALID,919.168,VALID,0,VALID,99.1254,VALID,-0.0679233,VALID,20.3292,VALID,18,VALID,0.491132,
2002-03-31, 00:25:00,VALID,919.143,VALID,0,VALID,99.1178,VALID,-0.0679233,VALID,20.3362,VALID,23,VALID,0.788061,
2002-03-31, 00:26:00,VALID,919.123,VALID,0,VALID,99.1254,VALID,-0.0339617,VALID,20.3456,VALID,25,VALID,0.945724,
2002-03-31, 00:27:00,VALID,919.108,VALID,0,VALID,99.1241,VALID,-0.0339617,VALID,20.3521,VALID,26,VALID,0.950838,
2002-03-31, 00:28:00,VALID,919.073,VALID,0,VALID,99.1279,VALID,-0.0679233,VALID,20.3612,VALID,27,VALID,0.936098,
2002-03-31, 00:29:00,VALID,919.047,VALID,0,VALID,99.1356,VALID,-0.0169808,VALID,20.3583,VALID,23,VALID,0.710938,
2002-03-31, 00:30:00,VALID,919.024,VALID,0,VALID,99.119,VALID,0,VALID,20.3623,VALID,19,VALID,0.595312,
2002-03-31, 00:31:00,VALID,918.994,VALID,0,VALID,99.1216,VALID,-0.0169808,VALID,20.326,VALID,22,VALID,0.319511,
2002-03-31, 00:32:00,VALID,918.972,VALID,0,VALID,99.1139,VALID,-0.0509425,VALID,20.2899,VALID,22,VALID,0.0629112,
2002-03-31, 00:33:00,VALID,918.964,VALID,0,VALID,99.1012,VALID,0,VALID,20.2581,VALID,22,VALID,0,
2002-03-31, 00:34:00,VALID,918.957,VALID,0,VALID,99.0949,VALID,-0.0169808,VALID,20.2487,VALID,22,VALID,0,
2002-03-31, 00:35:00,VALID,918.929,VALID,0,VALID,99.0923,VALID,-0.0169808,VALID,20.2193,VALID,22,VALID,0,
2002-03-31, 00:36:00,VALID,918.914,VALID,0,VALID,99.0644,VALID,-0.0339617,VALID,20.1806,VALID,22,VALID,0.00300481,
2002-03-31, 00:37:00,VALID,918.884,VALID,0,VALID,99.0644,VALID,-0.0339617,VALID,20.1684,VALID,22,VALID,0.148026,
2002-03-31, 00:38:00,VALID,918.881,VALID,0,VALID,99.0796,VALID,-0.0169808,VALID,20.1445,VALID,22,VALID,0.0670573,
2002-03-31, 00:39:00,VALID,918.852,VALID,0,VALID,99.0923,VALID,-0.0169808,VALID,20.1415,VALID,22,VALID,0,
2002-03-31, 00:40:00,VALID,918.83,VALID,0,VALID,99.0898,VALID,-0.0339617,VALID,20.1319,VALID,22,VALID,0.0414063,
2002-03-31, 00:41:00,VALID,918.806,VALID,0,VALID,99.0923,VALID,-0.0509425,VALID,20.1294,VALID,22,VALID,0,
2002-03-31, 00:42:00,VALID,918.776,VALID,0,VALID,99.1127,VALID,-0.0339617,VALID,20.1162,VALID,22,VALID,0,
2002-03-31, 00:43:00,VALID,918.739,VALID,0,VALID,99.1216,VALID,-0.0509425,VALID,20.1364,VALID,22,VALID,0,
2002-03-31, 00:44:00,VALID,918.693,VALID,0,VALID,99.1279,VALID,-0.0339617,VALID,20.113,VALID,22,VALID,0,
2002-03-31, 00:45:00,VALID,918.656,VALID,0,VALID,99.1318,VALID,-0.0169808,VALID,20.1256,VALID,22,VALID,0,
2002-03-31, 00:46:00,VALID,918.62,VALID,0,VALID,99.1394,VALID,-0.0509425,VALID,20.152,VALID,22,VALID,0,
2002-03-31, 00:47:00,VALID,918.593,VALID,0,VALID,99.1038,VALID,-0.0339617,VALID,20.1227,VALID,22,VALID,0,
2002-03-31, 00:48:00,VALID,918.556,VALID,0,VALID,99.0949,VALID,-0.0339617,VALID,20.0842,VALID,86,VALID,0,
2002-03-31, 00:49:00,VALID,918.552,VALID,0,VALID,99.1038,VALID,-0.0339617,VALID,20.0586,VALID,101,VALID,0,
2002-03-31, 00:50:00,VALID,918.546,VALID,0,VALID,99.0974,VALID,-0.0509425,VALID,20.0392,VALID,101,VALID,0,
2002-03-31, 00:51:00,VALID,918.539,VALID,0,VALID,99.0987,VALID,-0.0849042,VALID,20.0195,VALID,101,VALID,0,
2002-03-31, 00:52:00,VALID,918.542,VALID,0,VALID,99.105,VALID,-0.0679233,VALID,20.0101,VALID,100,VALID,0,
2002-03-31, 00:53:00,VALID,918.537,VALID,0,VALID,99.1203,VALID,-0.0509425,VALID,20.0295,VALID,88,VALID,0,
2002-03-31, 00:54:00,VALID,918.536,VALID,0,VALID,99.1279,VALID,-0.101885,VALID,20.03,VALID,75,VALID,0,
2002-03-31, 00:55:00,VALID,918.524,VALID,0,VALID,99.1305,VALID,-0.101885,VALID,20.0265,VALID,37,VALID,0,
2002-03-31, 00:56:00,VALID,918.521,VALID,0,VALID,99.1381,VALID,-0.0339617,VALID,20.0352,VALID,36,VALID,0,
2002-03-31, 00:57:00,VALID,918.5,VALID,0,VALID,99.1279,VALID,0.0169808,VALID,20.0315,VALID,33,VALID,0.40435,
2002-03-31, 00:58:00,VALID,918.485,VALID,0,VALID,99.1152,VALID,0.0679233,VALID,19.9857,VALID,43,VALID,0.671094,
2002-03-31, 00:59:00,VALID,918.482,VALID,0,VALID,99.0911,VALID,0.0339617,VALID,19.9509,VALID,54,VALID,0.993273,
2002-03-31, 01:00:00,VALID,918.466,VALID,0,VALID,99.0669,VALID,0.0169808,VALID,19.8925,VALID,64,VALID,1.12268,
2002-03-31, 01:01:00,VALID,918.466,VALID,0,VALID,99.0733,VALID,0.0169808,VALID,19.8533,VALID,68,VALID,1.21854,
2002-03-31, 01:02:00,VALID,918.462,VALID,0,VALID,99.0733,VALID,0.0339617,VALID,19.8212,VALID,73,VALID,1.03859,
2002-03-31, 01:03:00,VALID,918.456,VALID,0,VALID,99.0809,VALID,0.0339617,VALID,19.8148,VALID,89,VALID,1.24404,
2002-03-31, 01:04:00,VALID,918.44,VALID,0,VALID,99.0872,VALID,0,VALID,19.7924,VALID,92,VALID,1.25566,
2002-03-31, 01:05:00,VALID,918.435,VALID,0,VALID,99.105,VALID,0.0169808,VALID,19.7797,VALID,98,VALID,1.34252,
2002-03-31, 01:06:00,VALID,918.4,VALID,0,VALID,99.1165,VALID,0.0339617,VALID,19.7663,VALID,97,VALID,1.32052,
2002-03-31, 01:07:00,VALID,918.378,VALID,0,VALID,99.1241,VALID,0.0169808,VALID,19.7728,VALID,94,VALID,0.995593,
2002-03-31, 01:08:00,VALID,918.363,VALID,0,VALID,99.1394,VALID,0.0509425,VALID,19.7763,VALID,91,VALID,1.01002,
2002-03-31, 01:09:00,VALID,918.346,VALID,0,VALID,99.1483,VALID,0.0509425,VALID,19.7889,VALID,93,VALID,0.875411,
2002-03-31, 01:10:00,VALID,918.344,VALID,0,VALID,99.1597,VALID,0.0339617,VALID,19.7924,VALID,122,VALID,0.684622,
2002-03-31, 01:11:00,VALID,918.334,VALID,0,VALID,99.1712,VALID,0,VALID,19.8125,VALID,125,VALID,0.928711,
2002-03-31, 01:12:00,VALID,918.335,VALID,0,VALID,99.1775,VALID,-0.0509425,VALID,19.8133,VALID,132,VALID,0.54375,
2002-03-31, 01:13:00,VALID,918.333,VALID,0,VALID,99.1737,VALID,-0.0679233,VALID,19.8101,VALID,111,VALID,1.10726,
2002-03-31, 01:14:00,VALID,918.329,VALID,0.2,VALID,99.1686,VALID,-0.0679233,VALID,19.8071,VALID,113,VALID,0.9081,
2002-03-31, 01:15:00,VALID,918.331,VALID,0,VALID,99.1801,VALID,-0.0339617,VALID,19.7999,VALID,111,VALID,1.00825,
2002-03-31, 01:16:00,VALID,918.332,VALID,0,VALID,99.1724,VALID,-0.0849042,VALID,19.8001,VALID,104,VALID,0.900608,
2002-03-31, 01:17:00,VALID,918.332,VALID,0,VALID,99.1877,VALID,-0.0339617,VALID,19.8165,VALID,116,VALID,1.11123,
2002-03-31, 01:18:00,VALID,918.327,VALID,0,VALID,99.1915,VALID,-0.0509425,VALID,19.8262,VALID,115,VALID,0.913393,
2002-03-31, 01:19:00,VALID,918.306,VALID,0,VALID,99.1953,VALID,-0.0509425,VALID,19.8289,VALID,118,VALID,0.711538,
2002-03-31, 01:20:00,VALID,918.278,VALID,0,VALID,99.189,VALID,-0.0509425,VALID,19.8389,VALID,87,VALID,0.522352,
2002-03-31, 01:21:00,VALID,918.261,VALID,0,VALID,99.1941,VALID,-0.0849042,VALID,19.8327,VALID,105,VALID,0.434755,
2002-03-31, 01:22:00,VALID,918.234,VALID,0,VALID,99.2042,VALID,0,VALID,19.8456,VALID,109,VALID,0.620271,
2002-03-31, 01:23:00,VALID,918.214,VALID,0,VALID,99.2017,VALID,-0.101885,VALID,19.8488,VALID,112,VALID,0.741776,
2002-03-31, 01:24:00,VALID,918.195,VALID,0,VALID,99.1928,VALID,-0.0679233,VALID,19.8424,VALID,107,VALID,0.968178,
2002-03-31, 01:25:00,VALID,918.175,VALID,0,VALID,99.2017,VALID,-0.0169808,VALID,19.8389,VALID,135,VALID,1.07973,
2002-03-31, 01:26:00,VALID,918.17,VALID,0,VALID,99.208,VALID,-0.0849042,VALID,19.8488,VALID,129,VALID,0.935096,
2002-03-31, 01:27:00,VALID,918.161,VALID,0,VALID,99.2208,VALID,-0.0849042,VALID,19.862,VALID,129,VALID,0.793497,
2002-03-31, 01:28:00,VALID,918.163,VALID,0,VALID,99.2131,VALID,-0.0679233,VALID,19.8685,VALID,149,VALID,0.770703,
2002-03-31, 01:29:00,VALID,918.151,VALID,0,VALID,99.222,VALID,-0.0509425,VALID,19.8943,VALID,143,VALID,1.01769,
2002-03-31, 01:30:00,VALID,918.154,VALID,0,VALID,99.2195,VALID,-0.0679233,VALID,19.8876,VALID,141,VALID,0.768945,
2002-03-31, 01:31:00,VALID,918.155,VALID,0,VALID,99.222,VALID,-0.101885,VALID,19.897,VALID,153,VALID,0.84976,
2002-03-31, 01:32:00,VALID,918.163,VALID,0,VALID,99.2297,VALID,-0.0849042,VALID,19.907,VALID,139,VALID,0.839844,
2002-03-31, 01:33:00,VALID,918.16,VALID,0,VALID,99.2271,VALID,-0.101885,VALID,19.9032,VALID,155,VALID,1.21279,
2002-03-31, 01:34:00,VALID,918.164,VALID,0,VALID,99.222,VALID,-0.0849042,VALID,19.9003,VALID,126,VALID,0.920117,
2002-03-31, 01:35:00,VALID,918.144,VALID,0,VALID,99.2157,VALID,-0.0849042,VALID,19.9037,VALID,142,VALID,0.873438,
2002-03-31, 01:36:00,VALID,918.146,VALID,0,VALID,99.2144,VALID,-0.0509425,VALID,19.8839,VALID,140,VALID,0.980168,
2002-03-31, 01:37:00,VALID,918.131,VALID,0,VALID,99.2106,VALID,-0.0509425,VALID,19.8814,VALID,115,VALID,0.367393,
2002-03-31, 01:38:00,VALID,918.113,VALID,0,VALID,99.2144,VALID,-0.0849042,VALID,19.8712,VALID,133,VALID,0.599559,
2002-03-31, 01:39:00,VALID,918.101,VALID,0,VALID,99.2131,VALID,-0.0509425,VALID,19.8747,VALID,137,VALID,0.267428,
2002-03-31, 01:40:00,VALID,918.084,VALID,0,VALID,99.2144,VALID,-0.0169808,VALID,19.8548,VALID,136,VALID,0.431588,
2002-03-31, 01:41:00,VALID,918.066,VALID,0,VALID,99.2182,VALID,-0.0169808,VALID,19.8675,VALID,157,VALID,0.35016,
2002-03-31, 01:42:00,VALID,918.051,VALID,0,VALID,99.2271,VALID,0.0169808,VALID,19.8764,VALID,134,VALID,0.288411,
2002-03-31, 01:43:00,VALID,918.022,VALID,0,VALID,99.2157,VALID,0,VALID,19.8667,VALID,119,VALID,0.240234,
2002-03-31, 01:44:00,VALID,918.008,VALID,0,VALID,99.2157,VALID,0.0169808,VALID,19.8732,VALID,107,VALID,0.345117,
2002-03-31, 01:45:00,VALID,917.983,VALID,0,VALID,99.222,VALID,0,VALID,19.8665,VALID,100,VALID,0.271537,
2002-03-31, 01:46:00,VALID,917.965,VALID,0,VALID,99.2169,VALID,0,VALID,19.8535,VALID,106,VALID,0.357572,
2002-03-31, 01:47:00,VALID,917.954,VALID,0,VALID,99.2042,VALID,0,VALID,19.8476,VALID,111,VALID,0.583882,
2002-03-31, 01:48:00,VALID,917.938,VALID,0,VALID,99.2106,VALID,0,VALID,19.8215,VALID,100,VALID,0.482279,
2002-03-31, 01:49:00,VALID,917.911,VALID,0,VALID,99.2119,VALID,0,VALID,19.8185,VALID,105,VALID,0.563502,
2002-03-31, 01:50:00,VALID,917.897,VALID,0,VALID,99.208,VALID,0,VALID,19.8086,VALID,83,VALID,0.282306,
2002-03-31, 01:51:00,VALID,917.875,VALID,0,VALID,99.2233,VALID,0,VALID,19.8086,VALID,78,VALID,0.0929687,
2002-03-31, 01:52:00,VALID,917.87,VALID,0,VALID,99.2131,VALID,-0.0169808,VALID,19.8056,VALID,89,VALID,0.45012,
2002-03-31, 01:53:00,VALID,917.857,VALID,0,VALID,99.2042,VALID,0,VALID,19.7795,VALID,112,VALID,0.54009,
2002-03-31, 01:54:00,VALID,917.839,VALID,0,VALID,99.2169,VALID,0,VALID,19.7735,VALID,122,VALID,0.439823,
2002-03-31, 01:55:00,VALID,917.824,VALID,0,VALID,99.2144,VALID,0,VALID,19.7668,VALID,120,VALID,0.697917,
2002-03-31, 01:56:00,VALID,917.806,VALID,0,VALID,99.2144,VALID,0,VALID,19.7569,VALID,123,VALID,0.541131,
2002-03-31, 01:57:00,VALID,917.791,VALID,0,VALID,99.2131,VALID,0,VALID,19.7735,VALID,114,VALID,0.335337,
2002-03-31, 01:58:00,VALID,917.784,VALID,0,VALID,99.2271,VALID,0,VALID,19.7733,VALID,126,VALID,0.600535,
2002-03-31, 01:59:00,VALID,917.758,VALID,0,VALID,99.2271,VALID,0,VALID,19.7768,VALID,117,VALID,0.671224,
2002-03-31, 02:00:00,VALID,917.764,VALID,0,VALID,99.2309,VALID,0,VALID,19.7964,VALID,133,VALID,0.6231,
2002-03-31, 02:01:00,VALID,917.752,VALID,0,VALID,99.2233,VALID,0,VALID,19.7994,VALID,101,VALID,0.802344,
2002-03-31, 02:02:00,VALID,917.735,VALID,0,VALID,99.222,VALID,0,VALID,19.7859,VALID,118,VALID,0.709087,
2002-03-31, 02:03:00,VALID,917.724,VALID,0,VALID,99.2284,VALID,0.0509425,VALID,19.7892,VALID,120,VALID,0.846073,
2002-03-31, 02:04:00,VALID,917.715,VALID,0,VALID,99.2309,VALID,-0.0169808,VALID,19.7892,VALID,116,VALID,0.525441,
2002-03-31, 02:05:00,VALID,917.729,VALID,0,VALID,99.2309,VALID,0,VALID,19.812,VALID,141,VALID,0.22516,
2002-03-31, 02:06:00,VALID,917.714,VALID,0,VALID,99.2284,VALID,0,VALID,19.8123,VALID,112,VALID,0.652755,
2002-03-31, 02:07:00,VALID,917.706,VALID,0,VALID,99.2322,VALID,-0.0169808,VALID,19.8123,VALID,45,VALID,0.419975,
2002-03-31, 02:08:00,VALID,917.686,VALID,0,VALID,99.236,VALID,0,VALID,19.8252,VALID,63,VALID,0.603365,
2002-03-31, 02:09:00,VALID,917.677,VALID,0,VALID,99.2297,VALID,-0.0339617,VALID,19.8155,VALID,52,VALID,0.552154,
2002-03-31, 02:10:00,VALID,917.661,VALID,0,VALID,99.2246,VALID,-0.0169808,VALID,19.812,VALID,68,VALID,0.668074,
2002-03-31, 02:11:00,VALID,917.636,VALID,0,VALID,99.2169,VALID,0,VALID,19.7994,VALID,71,VALID,0.969131,
2002-03-31, 02:12:00,VALID,917.604,VALID,0,VALID,99.2373,VALID,0,VALID,19.7994,VALID,58,VALID,0.917318,
2002-03-31, 02:13:00,VALID,917.567,VALID,0,VALID,99.2233,VALID,-0.0169808,VALID,19.8026,VALID,68,VALID,0.833984,
2002-03-31, 02:14:00,VALID,917.535,VALID,0,VALID,99.2233,VALID,0,VALID,19.7961,VALID,82,VALID,0.907252,
2002-03-31, 02:15:00,VALID,917.508,VALID,0,VALID,99.2182,VALID,0,VALID,19.773,VALID,95,VALID,1.25781,
2002-03-31, 02:16:00,VALID,917.475,VALID,0,VALID,99.2284,VALID,0,VALID,19.7733,VALID,83,VALID,1.17352,
2002-03-31, 02:17:00,VALID,917.435,VALID,0,VALID,99.2309,VALID,-0.0169808,VALID,19.773,VALID,76,VALID,0.963405,
2002-03-31, 02:18:00,VALID,917.402,VALID,0,VALID,99.2335,VALID,0,VALID,19.7633,VALID,88,VALID,1.26014,
2002-03-31, 02:19:00,VALID,917.386,VALID,0,VALID,99.2119,VALID,0,VALID,19.735,VALID,73,VALID,1.01133,
2002-03-31, 02:20:00,VALID,917.365,VALID,0,VALID,99.2157,VALID,0,VALID,19.6923,VALID,80,VALID,1.18902,
2002-03-31, 02:21:00,VALID,917.362,VALID,0,VALID,99.2106,VALID,0,VALID,19.6798,VALID,86,VALID,0.896959,
2002-03-31, 02:22:00,VALID,917.361,VALID,0,VALID,99.208,VALID,0,VALID,19.6538,VALID,82,VALID,1.03968,
2002-03-31, 02:23:00,VALID,917.353,VALID,0,VALID,99.2309,VALID,0.0169808,VALID,19.654,VALID,108,VALID,0.46946,
2002-03-31, 02:24:00,VALID,917.356,VALID,0,VALID,99.2462,VALID,0,VALID,19.647,VALID,123,VALID,0.664885,
2002-03-31, 02:25:00,VALID,917.366,VALID,0,VALID,99.2513,VALID,-0.0169808,VALID,19.6535,VALID,145,VALID,0.794141,
2002-03-31, 02:26:00,VALID,917.363,VALID,0,VALID,99.2589,VALID,0.0509425,VALID,19.6759,VALID,143,VALID,0.838816,
2002-03-31, 02:27:00,VALID,917.362,VALID,0,VALID,99.2589,VALID,0.0679233,VALID,19.701,VALID,148,VALID,1.12418,
2002-03-31, 02:28:00,VALID,917.345,VALID,0,VALID,99.2589,VALID,0.101885,VALID,19.7136,VALID,143,VALID,0.811899,
2002-03-31, 02:29:00,VALID,917.345,VALID,0,VALID,99.2564,VALID,0.118866,VALID,19.7204,VALID,139,VALID,1.0619,
2002-03-31, 02:30:00,VALID,917.33,VALID,0,VALID,99.2576,VALID,0.101885,VALID,19.7042,VALID,152,VALID,1.45539,
2002-03-31, 02:31:00,VALID,917.309,VALID,0,VALID,99.2551,VALID,0.0849042,VALID,19.6818,VALID,150,VALID,1.34539,
2002-03-31, 02:32:00,VALID,917.297,VALID,0,VALID,99.2437,VALID,0.101885,VALID,19.6652,VALID,153,VALID,1.04277,
2002-03-31, 02:33:00,VALID,917.289,VALID,0,VALID,99.2449,VALID,0.101885,VALID,19.6617,VALID,146,VALID,1.00491,
2002-03-31, 02:34:00,VALID,917.265,VALID,0,VALID,99.2335,VALID,0.118866,VALID,19.6207,VALID,153,VALID,2.03906,
2002-03-31, 02:35:00,VALID,917.277,VALID,0,VALID,99.2424,VALID,0.101885,VALID,19.5745,VALID,132,VALID,1.09313,
2002-03-31, 02:36:00,VALID,917.282,VALID,0,VALID,99.2335,VALID,0.101885,VALID,19.5785,VALID,119,VALID,1.07422,
2002-03-31, 02:37:00,VALID,917.28,VALID,0,VALID,99.2322,VALID,0.0849042,VALID,19.5462,VALID,126,VALID,0.978082,
2002-03-31, 02:38:00,VALID,917.27,VALID,0,VALID,99.2398,VALID,0.101885,VALID,19.5203,VALID,124,VALID,1.00863,
2002-03-31, 02:39:01,VALID,917.257,VALID,0,VALID,99.2335,VALID,0.0849042,VALID,19.5077,VALID,145,VALID,1.02031,
2002-03-31, 02:40:00,VALID,917.263,VALID,0,VALID,99.2386,VALID,0.0849042,VALID,19.5077,VALID,139,VALID,1.11599,
2002-03-31, 02:41:00,VALID,917.246,VALID,0,VALID,99.236,VALID,0.0169808,VALID,19.4828,VALID,145,VALID,1.69683,
2002-03-31, 02:42:00,VALID,917.243,VALID,0,VALID,99.2335,VALID,0,VALID,19.4731,VALID,146,VALID,1.65519,
2002-03-31, 02:43:00,VALID,917.237,VALID,0,VALID,99.2373,VALID,-0.0509425,VALID,19.4803,VALID,140,VALID,1.43791,
2002-03-31, 02:44:00,VALID,917.223,VALID,0,VALID,99.2271,VALID,0,VALID,19.4637,VALID,149,VALID,1.63035,
2002-03-31, 02:45:00,VALID,917.213,VALID,0,VALID,99.2144,VALID,0,VALID,19.448,VALID,144,VALID,1.83098,
2002-03-31, 02:46:00,VALID,917.198,VALID,0,VALID,99.2131,VALID,-0.0169808,VALID,19.4448,VALID,151,VALID,1.70152,
2002-03-31, 02:47:00,VALID,917.191,VALID,0,VALID,99.2119,VALID,-0.0169808,VALID,19.4448,VALID,140,VALID,1.58934,
2002-03-31, 02:48:00,VALID,917.185,VALID,0,VALID,99.1979,VALID,-0.0169808,VALID,19.4411,VALID,146,VALID,1.63112,
2002-03-31, 02:49:00,VALID,917.175,VALID,0,VALID,99.208,VALID,0,VALID,19.4411,VALID,153,VALID,1.60547,
2002-03-31, 02:50:00,VALID,917.168,VALID,0,VALID,99.1813,VALID,0,VALID,19.4416,VALID,147,VALID,2.05009,
2002-03-31, 02:51:00,VALID,917.155,VALID,0,VALID,99.1852,VALID,0,VALID,19.4277,VALID,150,VALID,1.48672,
2002-03-31, 02:52:00,VALID,917.149,VALID,0,VALID,99.1915,VALID,0,VALID,19.4478,VALID,146,VALID,1.2508,
2002-03-31, 02:53:00,VALID,917.163,VALID,0,VALID,99.1674,VALID,-0.0169808,VALID,19.451,VALID,132,VALID,1.14638,
2002-03-31, 02:54:00,VALID,917.163,VALID,0,VALID,99.1432,VALID,-0.0339617,VALID,19.4279,VALID,121,VALID,1.2352,
2002-03-31, 02:55:00,VALID,917.157,VALID,0,VALID,99.0961,VALID,0,VALID,19.3829,VALID,123,VALID,1.12969,
2002-03-31, 02:56:00,VALID,917.153,VALID,0,VALID,99.0885,VALID,0,VALID,19.3702,VALID,135,VALID,0.786914,
2002-03-31, 02:57:00,VALID,917.147,VALID,0,VALID,99.0936,VALID,0.0169808,VALID,19.3665,VALID,121,VALID,0.844351,
2002-03-31, 02:58:00,VALID,917.122,VALID,0,VALID,99.1076,VALID,0,VALID,19.3829,VALID,98,VALID,0.852796,
2002-03-31, 02:59:01,VALID,917.121,VALID,0,VALID,99.0961,VALID,-0.0169808,VALID,19.4035,VALID,91,VALID,1.25761,
2002-03-31, 03:00:00,VALID,917.1,VALID,0,VALID,99.105,VALID,-0.0169808,VALID,19.3829,VALID,92,VALID,1.56931,
2002-03-31, 03:01:01,VALID,917.082,VALID,0,VALID,99.1063,VALID,0,VALID,19.3767,VALID,96,VALID,1.28041,
2002-03-31, 03:02:00,VALID,917.07,VALID,0,VALID,99.1228,VALID,-0.0169808,VALID,19.3901,VALID,93,VALID,1.0014,
2002-03-31, 03:03:00,VALID,917.058,VALID,0,VALID,99.1305,VALID,0,VALID,19.3896,VALID,89,VALID,1.27214,
2002-03-31, 03:04:00,VALID,917.043,VALID,0,VALID,99.1381,VALID,0,VALID,19.3827,VALID,76,VALID,1.35395,
2002-03-31, 03:05:00,VALID,917.031,VALID,0,VALID,99.1483,VALID,-0.0169808,VALID,19.3961,VALID,80,VALID,1.43848,
2002-03-31, 03:06:00,VALID,917.029,VALID,0,VALID,99.1597,VALID,-0.0169808,VALID,19.4127,VALID,81,VALID,1.59227,
2002-03-31, 03:07:00,VALID,917.023,VALID,0,VALID,99.1597,VALID,0,VALID,19.4127,VALID,83,VALID,0.970753,
2002-03-31, 03:08:01,VALID,917.013,VALID,0,VALID,99.1763,VALID,0,VALID,19.4157,VALID,94,VALID,1.03495,
2002-03-31, 03:09:00,VALID,917.01,VALID,0,VALID,99.1801,VALID,0,VALID,19.4254,VALID,113,VALID,0.829649,
2002-03-31, 03:10:00,VALID,917.008,VALID,0,VALID,99.1915,VALID,0,VALID,19.4386,VALID,106,VALID,1.07472,
2002-03-31, 03:11:00,VALID,917.002,VALID,0,VALID,99.1864,VALID,0,VALID,19.4353,VALID,96,VALID,0.936655,
2002-03-31, 03:12:01,VALID,916.987,VALID,0,VALID,99.1928,VALID,-0.0339617,VALID,19.4388,VALID,50,VALID,1.12422,
2002-03-31, 03:13:00,VALID,916.946,VALID,0,VALID,99.1877,VALID,-0.0169808,VALID,19.4192,VALID,62,VALID,1.8141,
2002-03-31, 03:14:00,VALID,916.935,VALID,0,VALID,99.1763,VALID,0,VALID,19.4028,VALID,58,VALID,1.41201,
2002-03-31, 03:15:01,VALID,916.92,VALID,0,VALID,99.1737,VALID,0,VALID,19.3767,VALID,61,VALID,1.25063,
2002-03-31, 03:16:00,VALID,916.905,VALID,0,VALID,99.1661,VALID,0,VALID,19.3576,VALID,68,VALID,1.23117,
2002-03-31, 03:17:00,VALID,916.887,VALID,0,VALID,99.1597,VALID,-0.0169808,VALID,19.3546,VALID,74,VALID,1.4313,
2002-03-31, 03:18:00,VALID,916.858,VALID,0,VALID,99.1559,VALID,0,VALID,19.3352,VALID,75,VALID,1.4972,
2002-03-31, 03:19:00,VALID,916.835,VALID,0,VALID,99.1534,VALID,-0.0509425,VALID,19.3089,VALID,87,VALID,1.07792,
2002-03-31, 03:20:00,VALID,916.832,VALID,0,VALID,99.1559,VALID,0.0169808,VALID,19.2828,VALID,119,VALID,1.12522,
2002-03-31, 03:21:01,VALID,916.825,VALID,0,VALID,99.1496,VALID,-0.0509425,VALID,19.2833,VALID,121,VALID,0.960938,
2002-03-31, 03:22:00,VALID,916.818,VALID,0,VALID,99.1496,VALID,-0.0339617,VALID,19.2863,VALID,105,VALID,1.34766,
2002-03-31, 03:23:00,VALID,916.803,VALID,0,VALID,99.1432,VALID,-0.0169808,VALID,19.2736,VALID,111,VALID,1.57216,
2002-03-31, 03:24:01,VALID,916.785,VALID,0,VALID,99.1496,VALID,0,VALID,19.2701,VALID,102,VALID,1.05976,
2002-03-31, 03:25:00,VALID,916.783,VALID,0,VALID,99.1216,VALID,0,VALID,19.2639,VALID,96,VALID,1.00721,
2002-03-31, 03:26:00,VALID,916.772,VALID,0,VALID,99.1546,VALID,-0.0169808,VALID,19.2902,VALID,146,VALID,1.20353,
2002-03-31, 03:27:00,VALID,916.774,VALID,0,VALID,99.1661,VALID,0,VALID,19.3029,VALID,126,VALID,0.581826,
2002-03-31, 03:28:00,VALID,916.763,VALID,0,VALID,99.1457,VALID,0,VALID,19.2997,VALID,97,VALID,1.76119,
2002-03-31, 03:29:00,VALID,916.744,VALID,0,VALID,99.1267,VALID,0,VALID,19.2803,VALID,98,VALID,0.92488,
2002-03-31, 03:30:00,VALID,916.726,VALID,0,VALID,99.1012,VALID,0,VALID,19.2741,VALID,104,VALID,1.3674,
2002-03-31, 03:31:01,VALID,916.692,VALID,0,VALID,99.0516,VALID,-0.0169808,VALID,19.242,VALID,106,VALID,1.69172,
2002-03-31, 03:32:00,VALID,916.679,VALID,0,VALID,99.0402,VALID,-0.0339617,VALID,19.2189,VALID,98,VALID,1.01467,
2002-03-31, 03:33:00,VALID,916.652,VALID,0,VALID,99.0364,VALID,-0.0169808,VALID,19.2157,VALID,113,VALID,1.17448,
2002-03-31, 03:34:01,VALID,916.643,VALID,0,VALID,98.9919,VALID,-0.0169808,VALID,19.1958,VALID,122,VALID,0.87168,
2002-03-31, 03:35:00,VALID,916.635,VALID,0,VALID,98.9995,VALID,-0.0169808,VALID,19.203,VALID,118,VALID,0.763421,